Wind_Speed
9 10 11 12 13 17 19 16 15 17 17 18 18 19 17 12 11 10 9 9 8 8
5 6 6 7 9 12 14 15 16 16 17 17 16 14 14 12 10 7 6 7 7 7
5 6 5 6 6 8 10 14 16 18 17 16 14 13 11 10 9 7 5 6 6 8
4 4 4 4 5 8 10 13 15 16 16 15 14 12 10 8 6 4 4 6 6 7
5 5 5 6 7 9 11 14 15 16 15 14 11 9 7 5 4 3 4 5 5 6
5 5 6 7 9 12 15 16 16 14 13 12 10 8 7 5 3 2 3 4 5 5
9 8 7 10 12 14 14 15 14 13 12 10 9 7 6 5 4 3 1 2 4 6
12 12 11 11 11 12 13 13 13 13 12 11 10 10 9 7 6 5 4 3 4 5
14 15 15 16 16 16 16 16 15 14 13 12 10 9 8 8 7 5 3 2 3 5
16 18 17 16 17 17 17 15 14 14 13 12 10 10 8 7 5 5 4 4 4 6
18 19 17 18 19 18 17 15 14 13 12 9 8 8 8 7 7 6 5 6 7 7
16 20 21 22 22 20 19 18 16 15 13 10 7 7 10 10 10 8 7 7 8 8
12 19 24 25 23 23 21 19 18 16 14 11 7 7 10 11 12 10 9 8 10 10
10 14 20 22 22 23 21 19 18 18 15 13 10 10 12 13 15 14 13 12 13 12
Wind_Direction
238 240 237 243 244 239 231 230 215 207 203 204 198 193 187 188 198 209 217 220 229 247
250 253 253 240 236 234 232 222 207 199 191 187 184 182 180 184 193 205 224 238 248 253
255 256 249 238 231 226 216 205 198 191 186 181 177 179 180 184 187 189 231 255 259 265
261 245 235 222 204 192 188 186 184 183 179 178 177 178 180 184 198 191 232 256 257 264
253 232 213 196 188 185 178 173 175 174 176 179 185 183 189 177 195 195 229 255 266 262
255 219 201 187 178 174 173 171 172 176 179 178 180 177 170 173 186 224 259 268 257 255
254 233 210 191 185 182 180 179 176 177 180 181 181 178 181 177 187 190 230 318 283 270
241 230 220 211 202 196 191 187 183 182 181 184 184 187 187 186 195 205 226 263 286 272
239 222 215 211 203 199 194 191 188 185 188 187 188 195 191 201 208 224 250 263 268 257
245 230 220 213 207 203 200 197 192 192 194 196 195 194 196 210 234 240 240 242 233 233
252 239 227 221 217 210 209 207 205 205 204 205 210 204 203 208 225 235 250 245 236 230
258 242 231 225 221 216 215 214 213 214 210 210 215 222 208 210 222 240 257 253 240 232
282 248 236 230 223 220 220 221 216 214 214 217 221 222 224 219 230 238 257 255 239 232
299 256 241 239 233 226 221 218 219 218 218 223 239 238 233 222 234 238 241 246 242 232
Height
778 779 782 783 784 786 787 789 792 795 799 803 806 809 810 815 817 820 820 819 820 822
776 778 779 780 781 782 783 785 787 790 795 801 803 806 807 809 812 814 816 817 818 817
774 775 776 777 777 778 780 782 785 789 793 798 801 804 805 808 808 807 811 813 813 815
773 773 774 775 775 777 780 783 785 788 792 797 799 801 802 804 805 803 805 809 810 810
774 773 773 773 774 775 777 780 783 788 791 794 796 797 800 799 802 802 805 807 807 807
770 772 771 772 773 775 778 780 783 786 788 791 794 796 796 797 800 802 803 803 805 805
769 770 771 774 777 778 779 779 781 784 787 789 791 792 794 795 799 801 802 802 801 801
769 770 770 771 772 775 777 778 779 782 784 788 790 791 792 793 796 798 799 799 798 798
768 768 771 773 774 776 777 778 778 779 782 786 787 790 788 791 793 793 793 793 794 795
767 767 767 769 770 772 773 775 774 777 780 781 782 784 784 786 788 790 790 791 791 792
764 763 764 766 766 768 771 772 772 775 775 776 778 778 780 783 786 787 788 789 789 788
759 760 761 762 763 765 767 767 768 772 772 774 776 777 779 782 783 783 785 785 785 786
756 756 757 758 760 762 763 764 767 767 770 772 773 774 776 777 779 779 781 782 782 783
753 752 753 756 757 758 760 762 763 765 767 769 769 770 771 772 774 775 777 778 778 779